owner,sensor,date,latitude,longitude,vertical_datum,sea_water_practical_salinity,qcFlag 
NERRS,ioos:station:NOAA.NERRS:rkblhwq:1,2016-04-01T00:45:00Z,26.0257,-81.7332,1.08,31.9,1111122 
NERRS,ioos:station:NOAA.NERRS:rkblhwq:1,2016-04-01T01:45:00Z,26.0257,-81.7332,0.99,31.2,1111122 
NERRS,ioos:station:NOAA.NERRS:rkblhwq:1,2016-04-01T02:45:00Z,26.0257,-81.7332,0.89,31.7,1111122 
NERRS,ioos:station:NOAA.NERRS:rkblhwq:1,2016-04-01T03:45:00Z,26.0257,-81.7332,0.78,31.7,1111122 
NERRS,ioos:station:NOAA.NERRS:rkblhwq:1,2016-04-01T04:45:00Z,26.0257,-81.7332,0.67,31.6,1111122 
NERRS,ioos:station:NOAA.NERRS:rkblhwq:1,2016-04-01T05:45:00Z,26.0257,-81.7332,0.57,31.7,1111122 
NERRS,ioos:station:NOAA.NERRS:rkblhwq:1,2016-04-01T06:45:00Z,26.0257,-81.7332,0.48,31.4,1111122 
NERRS,ioos:station:NOAA.NERRS:rkblhwq:1,2016-04-01T07:45:00Z,26.0257,-81.7332,0.45,30.9,1111122 
NERRS,ioos:station:NOAA.NERRS:rkblhwq:1,2016-04-01T08:45:00Z,26.0257,-81.7332,0.51,31.0,1111122 
NERRS,ioos:station:NOAA.NERRS:rkblhwq:1,2016-04-01T09:45:00Z,26.0257,-81.7332,0.59,30.9,1111122 
NERRS,ioos:station:NOAA.NERRS:rkblhwq:1,2016-04-01T10:45:00Z,26.0257,-81.7332,0.7,30.9,1111122 
NERRS,ioos:station:NOAA.NERRS:rkblhwq:1,2016-04-01T11:45:00Z,26.0257,-81.7332,0.83,30.9,1111122 
NERRS,ioos:station:NOAA.NERRS:rkblhwq:1,2016-04-01T12:45:00Z,26.0257,-81.7332,0.93,31.7,1111122 
NERRS,ioos:station:NOAA.NERRS:rkblhwq:1,2016-04-01T13:45:00Z,26.0257,-81.7332,1.02,31.2,1111122 
NERRS,ioos:station:NOAA.NERRS:rkblhwq:1,2016-04-01T14:45:00Z,26.0257,-81.7332,1.03,30.8,1111122 
NERRS,ioos:station:NOAA.NERRS:rkblhwq:1,2016-04-01T15:45:00Z,26.0257,-81.7332,0.96,31.9,1111122 
NERRS,ioos:station:NOAA.NERRS:rkblhwq:1,2016-04-01T16:45:00Z,26.0257,-81.7332,0.89,31.2,1111122 
NERRS,ioos:station:NOAA.NERRS:rkblhwq:1,2016-04-01T17:45:00Z,26.0257,-81.7332,0.82,32.1,1111122 
NERRS,ioos:station:NOAA.NERRS:rkblhwq:1,2016-04-01T18:45:00Z,26.0257,-81.7332,0.79,31.0,1111122 
NERRS,ioos:station:NOAA.NERRS:rkblhwq:1,2016-04-01T19:45:00Z,26.0257,-81.7332,0.81,31.2,1111122 
NERRS,ioos:station:NOAA.NERRS:rkblhwq:1,2016-04-01T20:45:00Z,26.0257,-81.7332,0.85,31.5,1111122 
NERRS,ioos:station:NOAA.NERRS:rkblhwq:1,2016-04-01T21:45:00Z,26.0257,-81.7332,0.89,31.4,1111122 
NERRS,ioos:station:NOAA.NERRS:rkblhwq:1,2016-04-01T22:45:00Z,26.0257,-81.7332,0.95,31.5,1111122 
NERRS,ioos:station:NOAA.NERRS:rkblhwq:1,2016-04-01T23:45:00Z,26.0257,-81.7332,1.0,31.9,1111122 
NERRS,ioos:station:NOAA.NERRS:rkblhwq:1,2016-04-02T00:45:00Z,26.0257,-81.7332,1.03,32.5,1111122 
NERRS,ioos:station:NOAA.NERRS:rkblhwq:1,2016-04-02T01:45:00Z,26.0257,-81.7332,1.03,32.0,1111122 
NERRS,ioos:station:NOAA.NERRS:rkblhwq:1,2016-04-02T02:45:00Z,26.0257,-81.7332,0.98,32.2,1111122 
NERRS,ioos:station:NOAA.NERRS:rkblhwq:1,2016-04-02T03:45:00Z,26.0257,-81.7332,0.9,32.2,1111122 
NERRS,ioos:station:NOAA.NERRS:rkblhwq:1,2016-04-02T04:45:00Z,26.0257,-81.7332,0.79,31.6,1111122 
NERRS,ioos:station:NOAA.NERRS:rkblhwq:1,2016-04-02T05:45:00Z,26.0257,-81.7332,0.66,31.8,1111122 
NERRS,ioos:station:NOAA.NERRS:rkblhwq:1,2016-04-02T06:45:00Z,26.0257,-81.7332,0.54,31.1,1111122 
NERRS,ioos:station:NOAA.NERRS:rkblhwq:1,2016-04-02T07:45:00Z,26.0257,-81.7332,0.44,30.6,1111122 
NERRS,ioos:station:NOAA.NERRS:rkblhwq:1,2016-04-02T08:45:00Z,26.0257,-81.7332,0.39,30.4,1111122 
NERRS,ioos:station:NOAA.NERRS:rkblhwq:1,2016-04-02T09:45:00Z,26.0257,-81.7332,0.45,30.5,1111122 
NERRS,ioos:station:NOAA.NERRS:rkblhwq:1,2016-04-02T10:45:00Z,26.0257,-81.7332,0.57,30.7,1111122 
NERRS,ioos:station:NOAA.NERRS:rkblhwq:1,2016-04-02T11:45:00Z,26.0257,-81.7332,0.72,31.0,1111122 
NERRS,ioos:station:NOAA.NERRS:rkblhwq:1,2016-04-02T12:45:00Z,26.0257,-81.7332,0.87,31.3,1111122 
NERRS,ioos:station:NOAA.NERRS:rkblhwq:1,2016-04-02T13:45:00Z,26.0257,-81.7332,1.0,31.2,1111122 
NERRS,ioos:station:NOAA.NERRS:rkblhwq:1,2016-04-02T14:45:00Z,26.0257,-81.7332,1.09,31.2,1111122 
NERRS,ioos:station:NOAA.NERRS:rkblhwq:1,2016-04-02T15:45:00Z,26.0257,-81.7332,1.12,31.4,1111122 
NERRS,ioos:station:NOAA.NERRS:rkblhwq:1,2016-04-02T16:45:00Z,26.0257,-81.7332,1.06,30.9,1111122 
NERRS,ioos:station:NOAA.NERRS:rkblhwq:1,2016-04-02T17:45:00Z,26.0257,-81.7332,0.96,31.5,1111122 
NERRS,ioos:station:NOAA.NERRS:rkblhwq:1,2016-04-02T18:45:00Z,26.0257,-81.7332,0.84,31.5,1111122 
NERRS,ioos:station:NOAA.NERRS:rkblhwq:1,2016-04-02T19:45:00Z,26.0257,-81.7332,0.74,30.9,1111122 
NERRS,ioos:station:NOAA.NERRS:rkblhwq:1,2016-04-02T20:45:00Z,26.0257,-81.7332,0.68,31.5,1111122 
NERRS,ioos:station:NOAA.NERRS:rkblhwq:1,2016-04-02T21:45:00Z,26.0257,-81.7332,0.7,31.6,1111122 
NERRS,ioos:station:NOAA.NERRS:rkblhwq:1,2016-04-02T22:45:00Z,26.0257,-81.7332,0.77,31.7,1111122 
NERRS,ioos:station:NOAA.NERRS:rkblhwq:1,2016-04-02T23:45:00Z,26.0257,-81.7332,0.86,31.7,1111122 
NERRS,ioos:station:NOAA.NERRS:rkblhwq:1,2016-04-03T00:45:00Z,26.0257,-81.7332,0.98,31.8,1111122 
NERRS,ioos:station:NOAA.NERRS:rkblhwq:1,2016-04-03T01:45:00Z,26.0257,-81.7332,1.04,32.0,1111122 
NERRS,ioos:station:NOAA.NERRS:rkblhwq:1,2016-04-03T02:45:00Z,26.0257,-81.7332,1.04,31.9,1111122 
NERRS,ioos:station:NOAA.NERRS:rkblhwq:1,2016-04-03T03:45:00Z,26.0257,-81.7332,0.95,32.0,1111122 
NERRS,ioos:station:NOAA.NERRS:rkblhwq:1,2016-04-03T04:45:00Z,26.0257,-81.7332,0.85,31.7,1111122 
NERRS,ioos:station:NOAA.NERRS:rkblhwq:1,2016-04-03T05:45:00Z,26.0257,-81.7332,0.75,31.7,1111122 
NERRS,ioos:station:NOAA.NERRS:rkblhwq:1,2016-04-03T06:45:00Z,26.0257,-81.7332,0.64,31.5,1111122 
NERRS,ioos:station:NOAA.NERRS:rkblhwq:1,2016-04-03T07:45:00Z,26.0257,-81.7332,0.53,31.7,1111122 
NERRS,ioos:station:NOAA.NERRS:rkblhwq:1,2016-04-03T08:45:00Z,26.0257,-81.7332,0.43,31.3,1111122 
NERRS,ioos:station:NOAA.NERRS:rkblhwq:1,2016-04-03T09:45:00Z,26.0257,-81.7332,0.35,31.5,1111122 
NERRS,ioos:station:NOAA.NERRS:rkblhwq:1,2016-04-03T10:45:00Z,26.0257,-81.7332,0.34,31.5,1111122 
NERRS,ioos:station:NOAA.NERRS:rkblhwq:1,2016-04-03T11:45:00Z,26.0257,-81.7332,0.42,31.2,1111122 
NERRS,ioos:station:NOAA.NERRS:rkblhwq:1,2016-04-03T12:45:00Z,26.0257,-81.7332,0.53,31.3,1111122 
NERRS,ioos:station:NOAA.NERRS:rkblhwq:1,2016-04-03T13:45:00Z,26.0257,-81.7332,0.64,31.4,1111122 
NERRS,ioos:station:NOAA.NERRS:rkblhwq:1,2016-04-03T14:45:00Z,26.0257,-81.7332,0.74,31.8,1111122 
NERRS,ioos:station:NOAA.NERRS:rkblhwq:1,2016-04-03T15:45:00Z,26.0257,-81.7332,0.84,31.6,1111122 
NERRS,ioos:station:NOAA.NERRS:rkblhwq:1,2016-04-03T16:45:00Z,26.0257,-81.7332,0.86,31.7,1111122 
NERRS,ioos:station:NOAA.NERRS:rkblhwq:1,2016-04-03T17:45:00Z,26.0257,-81.7332,0.78,31.4,1111122 
NERRS,ioos:station:NOAA.NERRS:rkblhwq:1,2016-04-03T18:45:00Z,26.0257,-81.7332,0.69,31.5,1111122 
NERRS,ioos:station:NOAA.NERRS:rkblhwq:1,2016-04-03T19:45:00Z,26.0257,-81.7332,0.59,31.3,1111122 
NERRS,ioos:station:NOAA.NERRS:rkblhwq:1,2016-04-03T20:45:00Z,26.0257,-81.7332,0.52,31.4,1111122 
NERRS,ioos:station:NOAA.NERRS:rkblhwq:1,2016-04-03T21:45:00Z,26.0257,-81.7332,0.52,31.2,1111122 
NERRS,ioos:station:NOAA.NERRS:rkblhwq:1,2016-04-03T22:45:00Z,26.0257,-81.7332,0.59,31.2,1111122 
NERRS,ioos:station:NOAA.NERRS:rkblhwq:1,2016-04-03T23:45:00Z,26.0257,-81.7332,0.69,31.5,1111122 
NERRS,ioos:station:NOAA.NERRS:rkblhwq:1,2016-04-04T00:45:00Z,26.0257,-81.7332,0.82,31.9,1111122 
NERRS,ioos:station:NOAA.NERRS:rkblhwq:1,2016-04-04T01:45:00Z,26.0257,-81.7332,0.95,31.9,1111122 
NERRS,ioos:station:NOAA.NERRS:rkblhwq:1,2016-04-04T02:45:00Z,26.0257,-81.7332,1.07,32.2,1111122 
NERRS,ioos:station:NOAA.NERRS:rkblhwq:1,2016-04-04T03:45:00Z,26.0257,-81.7332,1.11,32.1,1111122 
NERRS,ioos:station:NOAA.NERRS:rkblhwq:1,2016-04-04T04:45:00Z,26.0257,-81.7332,1.04,32.0,1111122 
NERRS,ioos:station:NOAA.NERRS:rkblhwq:1,2016-04-04T05:45:00Z,26.0257,-81.7332,0.92,32.3,1111122 
NERRS,ioos:station:NOAA.NERRS:rkblhwq:1,2016-04-04T06:45:00Z,26.0257,-81.7332,0.78,32.2,1111122 
NERRS,ioos:station:NOAA.NERRS:rkblhwq:1,2016-04-04T07:45:00Z,26.0257,-81.7332,0.63,32.0,1111122 
NERRS,ioos:station:NOAA.NERRS:rkblhwq:1,2016-04-04T08:45:00Z,26.0257,-81.7332,0.5,31.7,1111122 
NERRS,ioos:station:NOAA.NERRS:rkblhwq:1,2016-04-04T09:45:00Z,26.0257,-81.7332,0.4,31.9,1111122 
NERRS,ioos:station:NOAA.NERRS:rkblhwq:1,2016-04-04T10:45:00Z,26.0257,-81.7332,0.34,32.0,1111122 
NERRS,ioos:station:NOAA.NERRS:rkblhwq:1,2016-04-04T11:45:00Z,26.0257,-81.7332,0.4,31.4,1111122 
NERRS,ioos:station:NOAA.NERRS:rkblhwq:1,2016-04-04T12:45:00Z,26.0257,-81.7332,0.52,31.5,1111122 
NERRS,ioos:station:NOAA.NERRS:rkblhwq:1,2016-04-04T13:45:00Z,26.0257,-81.7332,0.66,31.5,1111122 
NERRS,ioos:station:NOAA.NERRS:rkblhwq:1,2016-04-04T14:45:00Z,26.0257,-81.7332,0.82,31.6,1111122 
NERRS,ioos:station:NOAA.NERRS:rkblhwq:1,2016-04-04T15:45:00Z,26.0257,-81.7332,0.96,31.8,1111122 
NERRS,ioos:station:NOAA.NERRS:rkblhwq:1,2016-04-04T16:45:00Z,26.0257,-81.7332,1.04,31.7,1111122 
NERRS,ioos:station:NOAA.NERRS:rkblhwq:1,2016-04-04T17:45:00Z,26.0257,-81.7332,1.0,32.2,1111122 
NERRS,ioos:station:NOAA.NERRS:rkblhwq:1,2016-04-04T18:45:00Z,26.0257,-81.7332,0.88,32.2,1111122 
NERRS,ioos:station:NOAA.NERRS:rkblhwq:1,2016-04-04T19:45:00Z,26.0257,-81.7332,0.75,32.2,1111122 
NERRS,ioos:station:NOAA.NERRS:rkblhwq:1,2016-04-04T20:45:00Z,26.0257,-81.7332,0.62,32.2,1111122 
NERRS,ioos:station:NOAA.NERRS:rkblhwq:1,2016-04-04T21:45:00Z,26.0257,-81.7332,0.52,31.9,1111122 
NERRS,ioos:station:NOAA.NERRS:rkblhwq:1,2016-04-04T22:45:00Z,26.0257,-81.7332,0.47,31.8,1111122 
NERRS,ioos:station:NOAA.NERRS:rkblhwq:1,2016-04-04T23:45:00Z,26.0257,-81.7332,0.55,32.0,1111122 
NERRS,ioos:station:NOAA.NERRS:rkblhwq:1,2016-04-05T00:45:00Z,26.0257,-81.7332,0.67,32.1,1111122 
NERRS,ioos:station:NOAA.NERRS:rkblhwq:1,2016-04-05T01:45:00Z,26.0257,-81.7332,0.82,31.8,1111122 
NERRS,ioos:station:NOAA.NERRS:rkblhwq:1,2016-04-05T02:45:00Z,26.0257,-81.7332,0.96,32.3,1111122 
NERRS,ioos:station:NOAA.NERRS:rkblhwq:1,2016-04-05T03:45:00Z,26.0257,-81.7332,1.09,32.1,1111122 
NERRS,ioos:station:NOAA.NERRS:rkblhwq:1,2016-04-05T04:45:00Z,26.0257,-81.7332,1.17,31.7,1111122 
NERRS,ioos:station:NOAA.NERRS:rkblhwq:1,2016-04-05T05:45:00Z,26.0257,-81.7332,1.09,32.1,1111122 
NERRS,ioos:station:NOAA.NERRS:rkblhwq:1,2016-04-05T06:45:00Z,26.0257,-81.7332,0.96,31.9,1111122 
NERRS,ioos:station:NOAA.NERRS:rkblhwq:1,2016-04-05T07:45:00Z,26.0257,-81.7332,0.81,32.0,1111122 
NERRS,ioos:station:NOAA.NERRS:rkblhwq:1,2016-04-05T08:45:00Z,26.0257,-81.7332,0.65,32.0,1111122 
NERRS,ioos:station:NOAA.NERRS:rkblhwq:1,2016-04-05T17:45:00Z,26.0257,-81.7332,1.1,32.2,1111122 
NERRS,ioos:station:NOAA.NERRS:rkblhwq:1,2016-04-05T18:45:00Z,26.0257,-81.7332,1.01,32.3,1111122 
NERRS,ioos:station:NOAA.NERRS:rkblhwq:1,2016-04-05T19:45:00Z,26.0257,-81.7332,0.87,32.3,1111122 
NERRS,ioos:station:NOAA.NERRS:rkblhwq:1,2016-04-05T20:45:00Z,26.0257,-81.7332,0.73,32.1,1111122 
NERRS,ioos:station:NOAA.NERRS:rkblhwq:1,2016-04-05T21:45:00Z,26.0257,-81.7332,0.6,32.2,1111122 
NERRS,ioos:station:NOAA.NERRS:rkblhwq:1,2016-04-05T22:45:00Z,26.0257,-81.7332,0.5,32.0,1111122 
NERRS,ioos:station:NOAA.NERRS:rkblhwq:1,2016-04-05T23:45:00Z,26.0257,-81.7332,0.46,32.3,1111122 
NERRS,ioos:station:NOAA.NERRS:rkblhwq:1,2016-04-06T00:45:00Z,26.0257,-81.7332,0.54,32.1,1111122 
NERRS,ioos:station:NOAA.NERRS:rkblhwq:1,2016-04-06T01:45:00Z,26.0257,-81.7332,0.68,32.4,1111122 
NERRS,ioos:station:NOAA.NERRS:rkblhwq:1,2016-04-06T02:45:00Z,26.0257,-81.7332,0.85,32.3,1111122 
NERRS,ioos:station:NOAA.NERRS:rkblhwq:1,2016-04-06T03:45:00Z,26.0257,-81.7332,1.03,32.3,1111122 
NERRS,ioos:station:NOAA.NERRS:rkblhwq:1,2016-04-06T04:45:00Z,26.0257,-81.7332,1.16,32.2,1111122 
NERRS,ioos:station:NOAA.NERRS:rkblhwq:1,2016-04-06T05:45:00Z,26.0257,-81.7332,1.19,31.6,1111122 
NERRS,ioos:station:NOAA.NERRS:rkblhwq:1,2016-04-06T06:45:00Z,26.0257,-81.7332,1.11,32.4,1111122 
NERRS,ioos:station:NOAA.NERRS:rkblhwq:1,2016-04-06T07:45:00Z,26.0257,-81.7332,0.97,32.3,1111122 
NERRS,ioos:station:NOAA.NERRS:rkblhwq:1,2016-04-06T08:45:00Z,26.0257,-81.7332,0.81,32.3,1111122 
NERRS,ioos:station:NOAA.NERRS:rkblhwq:1,2016-04-06T09:45:00Z,26.0257,-81.7332,0.66,32.1,1111122 
NERRS,ioos:station:NOAA.NERRS:rkblhwq:1,2016-04-06T10:45:00Z,26.0257,-81.7332,0.52,32.4,1111122 
NERRS,ioos:station:NOAA.NERRS:rkblhwq:1,2016-04-06T11:45:00Z,26.0257,-81.7332,0.41,32.2,1111122 
NERRS,ioos:station:NOAA.NERRS:rkblhwq:1,2016-04-06T12:45:00Z,26.0257,-81.7332,0.38,32.2,1111122 
NERRS,ioos:station:NOAA.NERRS:rkblhwq:1,2016-04-06T13:45:00Z,26.0257,-81.7332,0.52,31.4,1111122 
NERRS,ioos:station:NOAA.NERRS:rkblhwq:1,2016-04-06T14:45:00Z,26.0257,-81.7332,0.68,32.0,1111122 
NERRS,ioos:station:NOAA.NERRS:rkblhwq:1,2016-04-06T15:45:00Z,26.0257,-81.7332,0.85,30.8,1111122 
NERRS,ioos:station:NOAA.NERRS:rkblhwq:1,2016-04-06T16:45:00Z,26.0257,-81.7332,1.02,31.6,1111122 
NERRS,ioos:station:NOAA.NERRS:rkblhwq:1,2016-04-06T17:45:00Z,26.0257,-81.7332,1.14,32.2,1111122 
NERRS,ioos:station:NOAA.NERRS:rkblhwq:1,2016-04-06T18:45:00Z,26.0257,-81.7332,1.15,31.7,1111122 
NERRS,ioos:station:NOAA.NERRS:rkblhwq:1,2016-04-06T19:45:00Z,26.0257,-81.7332,1.04,32.6,1111122 
NERRS,ioos:station:NOAA.NERRS:rkblhwq:1,2016-04-06T20:45:00Z,26.0257,-81.7332,0.88,31.8,1111122 
NERRS,ioos:station:NOAA.NERRS:rkblhwq:1,2016-04-06T21:45:00Z,26.0257,-81.7332,0.71,31.9,1111122 
NERRS,ioos:station:NOAA.NERRS:rkblhwq:1,2016-04-06T22:45:00Z,26.0257,-81.7332,0.56,31.8,1111122 
NERRS,ioos:station:NOAA.NERRS:rkblhwq:1,2016-04-06T23:45:00Z,26.0257,-81.7332,0.44,32.3,1111122 
NERRS,ioos:station:NOAA.NERRS:rkblhwq:1,2016-04-07T00:45:00Z,26.0257,-81.7332,0.38,32.4,1111122 
NERRS,ioos:station:NOAA.NERRS:rkblhwq:1,2016-04-07T01:45:00Z,26.0257,-81.7332,0.49,31.8,1111122 
NERRS,ioos:station:NOAA.NERRS:rkblhwq:1,2016-04-07T02:45:00Z,26.0257,-81.7332,0.64,32.1,1111122 
NERRS,ioos:station:NOAA.NERRS:rkblhwq:1,2016-04-07T03:45:00Z,26.0257,-81.7332,0.82,31.9,1111122 
NERRS,ioos:station:NOAA.NERRS:rkblhwq:1,2016-04-07T04:45:00Z,26.0257,-81.7332,1.02,32.2,1111122 
NERRS,ioos:station:NOAA.NERRS:rkblhwq:1,2016-04-07T05:45:00Z,26.0257,-81.7332,1.19,32.1,1111122 
NERRS,ioos:station:NOAA.NERRS:rkblhwq:1,2016-04-07T06:45:00Z,26.0257,-81.7332,1.25,32.0,1111122 
NERRS,ioos:station:NOAA.NERRS:rkblhwq:1,2016-04-07T07:45:00Z,26.0257,-81.7332,1.17,32.4,1111122 
NERRS,ioos:station:NOAA.NERRS:rkblhwq:1,2016-04-07T08:45:00Z,26.0257,-81.7332,1.03,32.2,1111122 
NERRS,ioos:station:NOAA.NERRS:rkblhwq:1,2016-04-07T09:45:00Z,26.0257,-81.7332,0.86,32.1,1111122 
NERRS,ioos:station:NOAA.NERRS:rkblhwq:1,2016-04-07T10:45:00Z,26.0257,-81.7332,0.72,31.9,1111122 
NERRS,ioos:station:NOAA.NERRS:rkblhwq:1,2016-04-07T11:45:00Z,26.0257,-81.7332,0.58,32.0,1111122 
NERRS,ioos:station:NOAA.NERRS:rkblhwq:1,2016-04-07T12:45:00Z,26.0257,-81.7332,0.52,31.5,1111122 
NERRS,ioos:station:NOAA.NERRS:rkblhwq:1,2016-04-07T13:45:00Z,26.0257,-81.7332,0.6,31.6,1111122 
NERRS,ioos:station:NOAA.NERRS:rkblhwq:1,2016-04-07T14:45:00Z,26.0257,-81.7332,0.76,32.0,1111122 
NERRS,ioos:station:NOAA.NERRS:rkblhwq:1,2016-04-07T15:45:00Z,26.0257,-81.7332,0.97,31.7,1111122 
NERRS,ioos:station:NOAA.NERRS:rkblhwq:1,2016-04-07T16:45:00Z,26.0257,-81.7332,1.13,32.0,1111122 
NERRS,ioos:station:NOAA.NERRS:rkblhwq:1,2016-04-07T17:45:00Z,26.0257,-81.7332,1.26,31.6,1111122 
NERRS,ioos:station:NOAA.NERRS:rkblhwq:1,2016-04-07T18:45:00Z,26.0257,-81.7332,1.29,32.1,1111122 
NERRS,ioos:station:NOAA.NERRS:rkblhwq:1,2016-04-07T19:45:00Z,26.0257,-81.7332,1.22,31.5,1111122 
NERRS,ioos:station:NOAA.NERRS:rkblhwq:1,2016-04-07T20:45:00Z,26.0257,-81.7332,1.08,31.9,1111122 
NERRS,ioos:station:NOAA.NERRS:rkblhwq:1,2016-04-07T21:45:00Z,26.0257,-81.7332,0.92,31.9,1111122 
NERRS,ioos:station:NOAA.NERRS:rkblhwq:1,2016-04-07T22:45:00Z,26.0257,-81.7332,0.74,31.8,1111122 
NERRS,ioos:station:NOAA.NERRS:rkblhwq:1,2016-04-07T23:45:00Z,26.0257,-81.7332,0.58,31.9,1111122 
NERRS,ioos:station:NOAA.NERRS:rkblhwq:1,2016-04-08T00:45:00Z,26.0257,-81.7332,0.45,31.8,1111122 
NERRS,ioos:station:NOAA.NERRS:rkblhwq:1,2016-04-08T01:45:00Z,26.0257,-81.7332,0.39,32.3,1111122 
NERRS,ioos:station:NOAA.NERRS:rkblhwq:1,2016-04-08T02:45:00Z,26.0257,-81.7332,0.51,31.9,1111122 
NERRS,ioos:station:NOAA.NERRS:rkblhwq:1,2016-04-08T03:45:00Z,26.0257,-81.7332,0.68,31.9,1111122 
NERRS,ioos:station:NOAA.NERRS:rkblhwq:1,2016-04-08T04:45:00Z,26.0257,-81.7332,0.88,31.9,1111122 
NERRS,ioos:station:NOAA.NERRS:rkblhwq:1,2016-04-08T05:45:00Z,26.0257,-81.7332,1.07,31.9,1111122 
NERRS,ioos:station:NOAA.NERRS:rkblhwq:1,2016-04-08T06:45:00Z,26.0257,-81.7332,1.21,32.3,1111122 
NERRS,ioos:station:NOAA.NERRS:rkblhwq:1,2016-04-08T07:45:00Z,26.0257,-81.7332,1.24,31.9,1111122 
NERRS,ioos:station:NOAA.NERRS:rkblhwq:1,2016-04-08T08:45:00Z,26.0257,-81.7332,1.14,32.4,1111122 
NERRS,ioos:station:NOAA.NERRS:rkblhwq:1,2016-04-08T09:45:00Z,26.0257,-81.7332,1.01,32.4,1111122 
NERRS,ioos:station:NOAA.NERRS:rkblhwq:1,2016-04-08T10:45:00Z,26.0257,-81.7332,0.86,32.3,1111122 
NERRS,ioos:station:NOAA.NERRS:rkblhwq:1,2016-04-08T11:45:00Z,26.0257,-81.7332,0.71,32.2,1111122 
NERRS,ioos:station:NOAA.NERRS:rkblhwq:1,2016-04-08T12:45:00Z,26.0257,-81.7332,0.6,32.4,1111122 
NERRS,ioos:station:NOAA.NERRS:rkblhwq:1,2016-04-08T13:45:00Z,26.0257,-81.7332,0.58,32.5,1111122 
NERRS,ioos:station:NOAA.NERRS:rkblhwq:1,2016-04-08T14:45:00Z,26.0257,-81.7332,0.7,32.6,1111122 
NERRS,ioos:station:NOAA.NERRS:rkblhwq:1,2016-04-08T15:45:00Z,26.0257,-81.7332,0.88,32.4,1111122 
NERRS,ioos:station:NOAA.NERRS:rkblhwq:1,2016-04-08T16:45:00Z,26.0257,-81.7332,0.99,36.6,1111122 
NERRS,ioos:station:NOAA.NERRS:rkblhwq:1,2016-04-08T17:45:00Z,26.0257,-81.7332,1.23,32.1,1111122 
NERRS,ioos:station:NOAA.NERRS:rkblhwq:1,2016-04-08T18:45:00Z,26.0257,-81.7332,1.32,32.0,1111122 
NERRS,ioos:station:NOAA.NERRS:rkblhwq:1,2016-04-08T19:45:00Z,26.0257,-81.7332,1.31,32.3,1111122 
NERRS,ioos:station:NOAA.NERRS:rkblhwq:1,2016-04-08T20:45:00Z,26.0257,-81.7332,1.2,32.5,1111122 
NERRS,ioos:station:NOAA.NERRS:rkblhwq:1,2016-04-08T21:45:00Z,26.0257,-81.7332,1.06,32.2,1111122 
NERRS,ioos:station:NOAA.NERRS:rkblhwq:1,2016-04-08T22:45:00Z,26.0257,-81.7332,0.87,32.4,1111122 
NERRS,ioos:station:NOAA.NERRS:rkblhwq:1,2016-04-08T23:45:00Z,26.0257,-81.7332,0.69,32.3,1111122 
NERRS,ioos:station:NOAA.NERRS:rkblhwq:1,2016-04-09T00:45:00Z,26.0257,-81.7332,0.53,32.1,1111122 
NERRS,ioos:station:NOAA.NERRS:rkblhwq:1,2016-04-09T01:45:00Z,26.0257,-81.7332,0.4,32.3,1111122 
NERRS,ioos:station:NOAA.NERRS:rkblhwq:1,2016-04-09T02:45:00Z,26.0257,-81.7332,0.35,31.8,1111122 
NERRS,ioos:station:NOAA.NERRS:rkblhwq:1,2016-04-09T03:45:00Z,26.0257,-81.7332,0.48,31.9,1111122 
NERRS,ioos:station:NOAA.NERRS:rkblhwq:1,2016-04-09T04:45:00Z,26.0257,-81.7332,0.65,31.8,1111122 
NERRS,ioos:station:NOAA.NERRS:rkblhwq:1,2016-04-09T05:45:00Z,26.0257,-81.7332,0.84,32.0,1111122 
NERRS,ioos:station:NOAA.NERRS:rkblhwq:1,2016-04-09T06:45:00Z,26.0257,-81.7332,1.03,31.9,1111122 
NERRS,ioos:station:NOAA.NERRS:rkblhwq:1,2016-04-09T07:45:00Z,26.0257,-81.7332,1.16,31.8,1111122 
NERRS,ioos:station:NOAA.NERRS:rkblhwq:1,2016-04-09T08:45:00Z,26.0257,-81.7332,1.18,31.8,1111122 
NERRS,ioos:station:NOAA.NERRS:rkblhwq:1,2016-04-09T09:45:00Z,26.0257,-81.7332,1.06,31.8,1111122 
NERRS,ioos:station:NOAA.NERRS:rkblhwq:1,2016-04-09T10:45:00Z,26.0257,-81.7332,0.93,31.8,1111122 
NERRS,ioos:station:NOAA.NERRS:rkblhwq:1,2016-04-09T11:45:00Z,26.0257,-81.7332,0.78,31.9,1111122 
NERRS,ioos:station:NOAA.NERRS:rkblhwq:1,2016-04-09T12:45:00Z,26.0257,-81.7332,0.65,32.5,1111122 
NERRS,ioos:station:NOAA.NERRS:rkblhwq:1,2016-04-09T13:45:00Z,26.0257,-81.7332,0.54,31.8,1111122 
NERRS,ioos:station:NOAA.NERRS:rkblhwq:1,2016-04-09T14:45:00Z,26.0257,-81.7332,0.5,32.3,1111122 
NERRS,ioos:station:NOAA.NERRS:rkblhwq:1,2016-04-09T15:45:00Z,26.0257,-81.7332,0.6,31.5,1111122 
NERRS,ioos:station:NOAA.NERRS:rkblhwq:1,2016-04-09T16:45:00Z,26.0257,-81.7332,0.76,31.8,1111122 
NERRS,ioos:station:NOAA.NERRS:rkblhwq:1,2016-04-09T17:45:00Z,26.0257,-81.7332,0.92,31.8,1111122 
NERRS,ioos:station:NOAA.NERRS:rkblhwq:1,2016-04-09T18:45:00Z,26.0257,-81.7332,1.07,31.9,1111122 
NERRS,ioos:station:NOAA.NERRS:rkblhwq:1,2016-04-09T19:45:00Z,26.0257,-81.7332,1.17,32.1,1111122 
NERRS,ioos:station:NOAA.NERRS:rkblhwq:1,2016-04-09T20:45:00Z,26.0257,-81.7332,1.12,32.0,1111122 
NERRS,ioos:station:NOAA.NERRS:rkblhwq:1,2016-04-09T21:45:00Z,26.0257,-81.7332,0.98,31.9,1111122 
NERRS,ioos:station:NOAA.NERRS:rkblhwq:1,2016-04-09T22:45:00Z,26.0257,-81.7332,0.83,31.9,1111122 
NERRS,ioos:station:NOAA.NERRS:rkblhwq:1,2016-04-09T23:45:00Z,26.0257,-81.7332,0.68,32.0,1111122 
NERRS,ioos:station:NOAA.NERRS:rkblhwq:1,2016-04-10T00:45:00Z,26.0257,-81.7332,0.54,32.2,1111122 
NERRS,ioos:station:NOAA.NERRS:rkblhwq:1,2016-04-10T01:45:00Z,26.0257,-81.7332,0.42,32.2,1111122 
NERRS,ioos:station:NOAA.NERRS:rkblhwq:1,2016-04-10T02:45:00Z,26.0257,-81.7332,0.3,32.3,1111122 
NERRS,ioos:station:NOAA.NERRS:rkblhwq:1,2016-04-10T03:45:00Z,26.0257,-81.7332,0.28,31.4,1111122 
NERRS,ioos:station:NOAA.NERRS:rkblhwq:1,2016-04-10T04:45:00Z,26.0257,-81.7332,0.4,31.6,1111122 
NERRS,ioos:station:NOAA.NERRS:rkblhwq:1,2016-04-10T05:45:00Z,26.0257,-81.7332,0.55,32.2,1111122 
NERRS,ioos:station:NOAA.NERRS:rkblhwq:1,2016-04-10T06:45:00Z,26.0257,-81.7332,0.71,32.2,1111122 
NERRS,ioos:station:NOAA.NERRS:rkblhwq:1,2016-04-10T07:45:00Z,26.0257,-81.7332,0.89,32.0,1111122 
NERRS,ioos:station:NOAA.NERRS:rkblhwq:1,2016-04-10T08:45:00Z,26.0257,-81.7332,1.02,32.0,1111122 
NERRS,ioos:station:NOAA.NERRS:rkblhwq:1,2016-04-10T09:45:00Z,26.0257,-81.7332,1.02,32.1,1111122 
NERRS,ioos:station:NOAA.NERRS:rkblhwq:1,2016-04-10T10:45:00Z,26.0257,-81.7332,0.9,32.1,1111122 
NERRS,ioos:station:NOAA.NERRS:rkblhwq:1,2016-04-10T11:45:00Z,26.0257,-81.7332,0.78,32.5,1111122 
NERRS,ioos:station:NOAA.NERRS:rkblhwq:1,2016-04-10T12:45:00Z,26.0257,-81.7332,0.67,32.2,1111122 
NERRS,ioos:station:NOAA.NERRS:rkblhwq:1,2016-04-10T13:45:00Z,26.0257,-81.7332,0.57,32.3,1111122 
NERRS,ioos:station:NOAA.NERRS:rkblhwq:1,2016-04-10T14:45:00Z,26.0257,-81.7332,0.52,32.3,1111122 
NERRS,ioos:station:NOAA.NERRS:rkblhwq:1,2016-04-10T15:45:00Z,26.0257,-81.7332,0.59,32.1,1111122 
NERRS,ioos:station:NOAA.NERRS:rkblhwq:1,2016-04-10T16:45:00Z,26.0257,-81.7332,0.72,31.9,1111122 
NERRS,ioos:station:NOAA.NERRS:rkblhwq:1,2016-04-10T17:45:00Z,26.0257,-81.7332,0.88,32.1,1111122 
NERRS,ioos:station:NOAA.NERRS:rkblhwq:1,2016-04-10T18:45:00Z,26.0257,-81.7332,1.03,32.6,1111122 
NERRS,ioos:station:NOAA.NERRS:rkblhwq:1,2016-04-10T21:45:00Z,26.0257,-81.7332,1.19,32.4,1111122 
NERRS,ioos:station:NOAA.NERRS:rkblhwq:1,2016-04-10T22:45:00Z,26.0257,-81.7332,1.04,32.5,1111122 
NERRS,ioos:station:NOAA.NERRS:rkblhwq:1,2016-04-10T23:45:00Z,26.0257,-81.7332,0.88,32.2,1111122 
NERRS,ioos:station:NOAA.NERRS:rkblhwq:1,2016-04-11T00:45:00Z,26.0257,-81.7332,0.71,32.2,1111122 
NERRS,ioos:station:NOAA.NERRS:rkblhwq:1,2016-04-11T01:45:00Z,26.0257,-81.7332,0.56,32.4,1111122 
NERRS,ioos:station:NOAA.NERRS:rkblhwq:1,2016-04-11T02:45:00Z,26.0257,-81.7332,0.43,32.3,1111122 
NERRS,ioos:station:NOAA.NERRS:rkblhwq:1,2016-04-11T03:45:00Z,26.0257,-81.7332,0.32,32.6,1111122 
NERRS,ioos:station:NOAA.NERRS:rkblhwq:1,2016-04-11T04:45:00Z,26.0257,-81.7332,0.3,31.7,1111122 
NERRS,ioos:station:NOAA.NERRS:rkblhwq:1,2016-04-11T05:45:00Z,26.0257,-81.7332,0.4,32.0,1111122 
NERRS,ioos:station:NOAA.NERRS:rkblhwq:1,2016-04-11T06:45:00Z,26.0257,-81.7332,0.54,32.0,1111122 
NERRS,ioos:station:NOAA.NERRS:rkblhwq:1,2016-04-11T07:45:00Z,26.0257,-81.7332,0.68,32.3,1111122 
NERRS,ioos:station:NOAA.NERRS:rkblhwq:1,2016-04-11T08:45:00Z,26.0257,-81.7332,0.82,32.1,1111122 
NERRS,ioos:station:NOAA.NERRS:rkblhwq:1,2016-04-11T09:45:00Z,26.0257,-81.7332,0.94,32.2,1111122 
NERRS,ioos:station:NOAA.NERRS:rkblhwq:1,2016-04-11T10:45:00Z,26.0257,-81.7332,0.99,32.7,1111122 
NERRS,ioos:station:NOAA.NERRS:rkblhwq:1,2016-04-11T11:45:00Z,26.0257,-81.7332,0.92,32.7,1111122 
NERRS,ioos:station:NOAA.NERRS:rkblhwq:1,2016-04-11T12:45:00Z,26.0257,-81.7332,0.84,32.3,1111122 
NERRS,ioos:station:NOAA.NERRS:rkblhwq:1,2016-04-11T13:45:00Z,26.0257,-81.7332,0.76,32.2,1111122 
NERRS,ioos:station:NOAA.NERRS:rkblhwq:1,2016-04-11T14:45:00Z,26.0257,-81.7332,0.72,32.2,1111122 
NERRS,ioos:station:NOAA.NERRS:rkblhwq:1,2016-04-11T15:45:00Z,26.0257,-81.7332,0.72,32.6,1111122 